Location: Alsip
(41.6689°N, 87.7387°W)
Time: 14:30:49
(UTC+00:00)

Cosmos 2251 Rocket - Pass Details

Date: 14 July 2020
Orbit: 765 x 792 km, 74.0° (Epoch: 04 August)

Event Time Altitude Azimuth Distance (km) Brightness Sun altitude
Exits shadow 06:34:03 82° 254° (WSW) 777 3.3 -26.2°
Maximum altitude 06:34:12 83° 289° (WNW) 775 3.4 -26.1°
Drops below altitude 10° 06:39:27 10° 18° (NNE) 2,312 7.0 -26.0°
Sets 06:41:50 0° 20° (NNE) 3,245 8.1 -25.9°
